�������l�o���
Date,Time,MP-1(��Sv/h),MP-2(��Sv/h),MP-3(��Sv/h),MP-4(��Sv/h),MP-5(��Sv/h),MP-6(��Sv/h),MP-7(��Sv/h),MP-8(��Sv/h),����,����(m/s),���J
2023/05/08,00:00,0.521,0.753,0.468,0.940,0.647,0.313,0.548,0.524,�k�k��,8.1,�L
2023/05/08,00:10,0.522,0.758,0.470,0.940,0.651,0.313,0.549,0.526,�k�k��,10.3,�L
2023/05/08,00:20,0.524,0.757,0.471,0.945,0.652,0.313,0.549,0.527,�k�k��,7.5,�L
2023/05/08,00:30,0.522,0.757,0.469,0.945,0.652,0.313,0.550,0.527,�k�k��,9.5,�L
2023/05/08,00:40,0.522,0.757,0.469,0.939,0.650,0.312,0.549,0.526,�k�k��,10.7,�L
2023/05/08,00:50,0.520,0.755,0.470,0.941,0.649,0.312,0.549,0.525,�k�k��,10.2,�L
2023/05/08,01:00,0.521,0.756,0.468,0.943,0.648,0.313,0.550,0.527,�k�k��,11.0,�L
2023/05/08,01:10,0.523,0.755,0.469,0.942,0.649,0.313,0.548,0.525,�k�k��,10.2,�L
2023/05/08,01:20,0.522,0.757,0.468,0.941,0.645,0.312,0.547,0.526,�k�k��,8.4,�L
2023/05/08,01:30,0.523,0.757,0.468,0.943,0.647,0.313,0.549,0.526,�k�k��,10.2,�L
2023/05/08,01:40,0.524,0.759,0.471,0.943,0.648,0.313,0.549,0.526,�k�k��,9.5,�L
2023/05/08,01:50,0.523,0.759,0.467,0.945,0.649,0.314,0.549,0.526,�k�k��,10.0,�L
2023/05/08,02:00,0.524,0.760,0.469,0.948,0.650,0.312,0.550,0.527,�k��,10.8,�L
2023/05/08,02:10,0.524,0.760,0.470,0.946,0.650,0.311,0.549,0.528,�k�k��,10.7,�L
2023/05/08,02:20,0.524,0.760,0.469,0.947,0.652,0.313,0.549,0.528,�k�k��,8.6,�L
2023/05/08,02:30,0.525,0.760,0.470,0.947,0.649,0.312,0.550,0.527,�k�k��,11.7,�L
2023/05/08,02:40,0.526,0.759,0.469,0.948,0.652,0.312,0.549,0.527,�k�k��,11.3,�L
2023/05/08,02:50,0.525,0.761,0.471,0.951,0.648,0.312,0.551,0.528,�k��,10.5,�L
2023/05/08,03:00,0.524,0.762,0.471,0.950,0.652,0.313,0.551,0.528,�k�k��,9.5,�L
2023/05/08,03:10,0.524,0.763,0.470,0.951,0.651,0.312,0.550,0.529,�k�k��,11.3,�L
2023/05/08,03:20,0.526,0.763,0.469,0.953,0.650,0.313,0.552,0.528,�k�k��,10.6,�L
2023/05/08,03:30,0.525,0.763,0.470,0.951,0.651,0.314,0.551,0.527,�k�k��,10.2,�L
2023/05/08,03:40,0.526,0.761,0.471,0.953,0.651,0.315,0.552,0.529,�k�k��,10.7,�L
2023/05/08,03:50,0.526,0.762,0.472,0.951,0.653,0.314,0.553,0.528,�k�k��,10.5,�L
2023/05/08,04:00,0.526,0.761,0.470,0.953,0.652,0.315,0.551,0.528,�k�k��,8.9,�L
2023/05/08,04:10,0.525,0.763,0.472,0.951,0.652,0.315,0.551,0.529,�k�k��,9.8,�L
2023/05/08,04:20,0.523,0.759,0.470,0.947,0.648,0.313,0.550,0.526,�k�k��,8.5,�L
2023/05/08,04:30,0.522,0.755,0.468,0.945,0.647,0.313,0.550,0.527,�k�k��,8.6,�L
2023/05/08,04:40,0.520,0.754,0.466,0.941,0.643,0.313,0.548,0.525,�k�k��,9.2,�L
2023/05/08,04:50,0.515,0.749,0.467,0.938,0.641,0.310,0.545,0.525,�k�k��,6.9,�L
2023/05/08,05:00,0.515,0.749,0.464,0.934,0.639,0.311,0.545,0.523,�k�k��,9.2,�L
2023/05/08,05:10,0.519,0.751,0.465,0.937,0.638,0.311,0.547,0.524,�k�k��,8.6,�L
2023/05/08,05:20,0.519,0.753,0.466,0.940,0.641,0.311,0.546,0.522,�k�k��,9.4,�L
2023/05/08,05:30,0.521,0.755,0.468,0.941,0.641,0.312,0.547,0.524,�k�k��,8.4,�L
2023/05/08,05:40,0.522,0.756,0.468,0.942,0.643,0.314,0.548,0.525,�k�k��,8.2,�L
2023/05/08,05:50,0.523,0.757,0.468,0.944,0.642,0.315,0.549,0.525,�k�k��,9.6,�L
2023/05/08,06:00,0.524,0.756,0.468,0.943,0.643,0.315,0.550,0.527,�k�k��,10.3,�L
2023/05/08,06:10,0.523,0.758,0.469,0.942,0.640,0.313,0.548,0.526,�k�k��,9.5,�L
2023/05/08,06:20,0.522,0.757,0.467,0.942,0.640,0.313,0.549,0.525,�k�k��,9.5,�L
2023/05/08,06:30,0.521,0.754,0.468,0.940,0.639,0.313,0.547,0.526,�k�k��,9.1,�L
2023/05/08,06:40,0.519,0.752,0.467,0.937,0.637,0.311,0.546,0.524,�k�k��,10.9,�L
2023/05/08,06:50,0.520,0.754,0.466,0.936,0.635,0.313,0.546,0.524,�k��,9.7,�L
2023/05/08,07:00,0.518,0.750,0.466,0.934,0.634,0.312,0.545,0.525,�k��,10.7,�L
2023/05/08,07:10,0.518,0.752,0.466,0.937,0.634,0.311,0.545,0.525,�k��,10.2,�L
2023/05/08,07:20,0.519,0.752,0.464,0.936,0.633,0.311,0.547,0.525,�k��,8.5,�L
2023/05/08,07:30,0.518,0.750,0.464,0.934,0.630,0.312,0.548,0.524,�k��,10.0,�L
2023/05/08,07:40,0.519,0.751,0.464,0.935,0.631,0.311,0.546,0.525,�k��,9.7,�L
2023/05/08,07:50,0.519,0.750,0.466,0.934,0.632,0.313,0.546,0.523,�k�k��,9.3,�L
2023/05/08,08:00,0.520,0.752,0.466,0.939,0.633,0.313,0.547,0.525,�k�k��,10.5,�L
2023/05/08,08:10,0.520,0.751,0.465,0.937,0.632,0.313,0.547,0.526,�k�k��,10.7,�L
2023/05/08,08:20,0.522,0.752,0.467,0.939,0.632,0.313,0.547,0.525,�k�k��,10.2,�L
2023/05/08,08:30,0.521,0.755,0.468,0.940,0.632,0.312,0.548,0.527,�k�k��,10.7,�L
2023/05/08,08:40,0.522,0.756,0.466,0.941,0.633,0.313,0.547,0.526,�k�k��,11.6,�L
2023/05/08,08:50,0.522,0.754,0.468,0.942,0.633,0.312,0.547,0.527,�k�k��,11.6,�L
2023/05/08,09:00,0.521,0.753,0.466,0.941,0.631,0.312,0.549,0.527,�k�k��,9.9,�L
2023/05/08,09:10,0.520,0.753,0.466,0.939,0.633,0.312,0.548,0.527,�k�k��,8.5,�L
2023/05/08,09:20,0.520,0.754,0.467,0.940,0.631,0.313,0.547,0.528,�k�k��,9.2,�L
2023/05/08,09:30,0.522,0.754,0.465,0.941,0.633,0.312,0.548,0.525,�k�k��,9.9,�L
2023/05/08,09:40,0.523,0.754,0.469,0.941,0.635,0.313,0.548,0.527,�k�k��,10.2,�L
2023/05/08,09:50,0.523,0.759,0.469,0.944,0.637,0.314,0.548,0.529,�k�k��,9.4,�L
2023/05/08,10:00,0.524,0.757,0.469,0.945,0.636,0.313,0.549,0.528,�k�k��,9.6,�L
2023/05/08,10:10,0.525,0.759,0.469,0.948,0.635,0.313,0.549,0.528,�k,7.6,�L
2023/05/08,10:20,0.527,0.762,0.467,0.950,0.638,0.313,0.550,0.530,�k�k��,9.2,�L
2023/05/08,10:30,0.528,0.763,0.469,0.949,0.639,0.312,0.551,0.529,�k�k��,8.5,��
2023/05/08,10:40,0.527,0.764,0.469,0.950,0.639,0.313,0.550,0.530,�k�k��,9.5,��
2023/05/08,10:50,0.529,0.766,0.470,0.953,0.641,0.313,0.549,0.528,�k�k��,9.6,��
2023/05/08,11:00,0.527,0.767,0.469,0.954,0.639,0.313,0.551,0.530,�k�k��,9.9,��
2023/05/08,11:10,0.525,0.767,0.468,0.954,0.637,0.314,0.550,0.530,�k�k��,8.8,��
2023/05/08,11:20,0.528,0.767,0.470,0.955,0.637,0.312,0.550,0.530,�k�k��,9.7,��
2023/05/08,11:30,0.527,0.765,0.469,0.956,0.642,0.312,0.552,0.529,�k�k��,8.7,��
2023/05/08,11:40,0.529,0.764,0.468,0.957,0.642,0.312,0.552,0.528,�k�k��,9.2,��
2023/05/08,11:50,0.529,0.767,0.472,0.960,0.644,0.313,0.551,0.530,�k�k��,8.9,��
2023/05/08,12:00,0.530,0.766,0.470,0.959,0.647,0.313,0.552,0.529,�k�k��,8.0,��
2023/05/08,12:10,0.530,0.768,0.473,0.961,0.646,0.313,0.552,0.530,�k,8.5,��
2023/05/08,12:20,0.531,0.767,0.472,0.960,0.644,0.313,0.552,0.530,�k�k��,5.9,��
2023/05/08,12:30,0.529,0.767,0.473,0.962,0.647,0.314,0.552,0.530,�k,7.8,��
2023/05/08,12:40,0.533,0.769,0.472,0.962,0.646,0.313,0.554,0.530,�k,6.3,��
2023/05/08,12:50,0.533,0.771,0.473,0.963,0.648,0.314,0.553,0.530,�k,8.3,��
2023/05/08,13:00,0.532,0.769,0.472,0.964,0.650,0.313,0.554,0.530,�k,8.5,��
2023/05/08,13:10,0.533,0.771,0.471,0.964,0.651,0.314,0.554,0.528,�k,6.0,��
2023/05/08,13:20,0.533,0.769,0.473,0.962,0.650,0.313,0.554,0.528,�k,6.5,��
2023/05/08,13:30,0.533,0.771,0.473,0.965,0.647,0.314,0.552,0.528,�k,8.6,��
2023/05/08,13:40,0.532,0.772,0.472,0.965,0.649,0.314,0.554,0.529,�k,7.3,��
2023/05/08,13:50,0.530,0.771,0.472,0.965,0.650,0.316,0.555,0.529,�k,7.5,��
2023/05/08,14:00,0.531,0.768,0.474,0.965,0.652,0.314,0.553,0.528,�k,6.6,��
2023/05/08,14:10,0.533,0.767,0.475,0.966,0.651,0.314,0.556,0.529,�k,7.7,��
2023/05/08,14:20,0.534,0.772,0.473,0.966,0.651,0.314,0.553,0.529,�k,7.4,��
2023/05/08,14:30,0.532,0.771,0.474,0.965,0.651,0.314,0.554,0.530,�k,6.8,��
2023/05/08,14:40,0.533,0.772,0.474,0.966,0.654,0.314,0.556,0.529,�k,5.5,��
2023/05/08,14:50,0.531,0.774,0.474,0.967,0.652,0.313,0.555,0.530,�k,5.5,�L
2023/05/08,15:00,0.533,0.773,0.473,0.966,0.654,0.312,0.557,0.530,�k,4.8,�L
2023/05/08,15:10,0.534,0.774,0.474,0.968,0.655,0.315,0.555,0.532,�k,4.4,��
2023/05/08,15:20,0.535,0.777,0.475,0.968,0.655,0.314,0.555,0.531,�k,5.3,��
2023/05/08,15:30,0.534,0.778,0.474,0.970,0.654,0.314,0.555,0.532,�k,6.8,��
2023/05/08,15:40,0.535,0.778,0.476,0.969,0.656,0.314,0.555,0.531,�k,7.0,��
2023/05/08,15:50,0.534,0.777,0.474,0.969,0.656,0.314,0.555,0.532,�k�k��,6.9,��
2023/05/08,16:00,0.534,0.778,0.474,0.969,0.657,0.315,0.556,0.532,�k�k��,7.9,��
2023/05/08,16:10,0.533,0.777,0.476,0.968,0.656,0.314,0.557,0.531,�k�k��,8.7,��
2023/05/08,16:20,0.536,0.776,0.475,0.969,0.655,0.316,0.556,0.533,�k�k��,7.9,��
2023/05/08,16:30,0.535,0.779,0.475,0.968,0.656,0.317,0.556,0.532,�k,4.9,��
2023/05/08,16:40,0.535,0.780,0.475,0.970,0.658,0.316,0.556,0.533,�k,6.5,��
2023/05/08,16:50,0.533,0.776,0.475,0.971,0.657,0.314,0.558,0.532,�k,8.0,��
2023/05/08,17:00,0.534,0.776,0.475,0.969,0.657,0.313,0.556,0.532,�k,8.7,��
2023/05/08,17:10,0.532,0.777,0.475,0.971,0.657,0.315,0.556,0.532,�k�k��,7.9,��
2023/05/08,17:20,0.535,0.778,0.474,0.971,0.657,0.315,0.556,0.532,�k,6.8,��
2023/05/08,17:30,0.534,0.778,0.475,0.973,0.656,0.315,0.556,0.533,�k,5.6,��
2023/05/08,17:40,0.534,0.780,0.476,0.970,0.658,0.314,0.557,0.534,�k�k��,6.6,��
2023/05/08,17:50,0.534,0.779,0.474,0.969,0.659,0.315,0.557,0.532,�k,7.0,��
2023/05/08,18:00,0.536,0.780,0.476,0.971,0.662,0.314,0.556,0.532,�k,7.0,��
2023/05/08,18:10,0.535,0.780,0.475,0.971,0.660,0.316,0.556,0.534,�k,7.2,��
2023/05/08,18:20,0.536,0.780,0.475,0.971,0.661,0.314,0.557,0.531,�k,9.2,��
2023/05/08,18:30,0.534,0.781,0.476,0.970,0.662,0.316,0.557,0.533,�k,9.9,��
2023/05/08,18:40,0.535,0.780,0.476,0.971,0.660,0.316,0.557,0.532,�k,9.9,��
2023/05/08,18:50,0.534,0.781,0.478,0.972,0.662,0.316,0.559,0.532,�k,8.6,��
2023/05/08,19:00,0.533,0.782,0.476,0.970,0.663,0.315,0.556,0.532,�k,9.0,��
2023/05/08,19:10,0.535,0.780,0.475,0.973,0.664,0.315,0.556,0.532,�k�k��,8.1,��
2023/05/08,19:20,0.536,0.780,0.476,0.974,0.661,0.315,0.557,0.533,�k,7.8,��
2023/05/08,19:30,0.534,0.781,0.476,0.971,0.663,0.314,0.558,0.534,�k,7.1,��
2023/05/08,19:40,0.532,0.782,0.476,0.972,0.662,0.315,0.557,0.530,�k,5.8,��
2023/05/08,19:50,0.533,0.779,0.474,0.972,0.663,0.315,0.558,0.533,�k,6.5,��
2023/05/08,20:00,0.534,0.781,0.475,0.971,0.664,0.314,0.557,0.531,�k,6.7,��
2023/05/08,20:10,0.535,0.780,0.477,0.973,0.662,0.316,0.558,0.533,�k,6.1,��
2023/05/08,20:20,0.535,0.778,0.476,0.972,0.664,0.315,0.558,0.530,�k,6.4,��
2023/05/08,20:30,0.534,0.780,0.475,0.970,0.664,0.314,0.559,0.532,�k�k��,5.6,��
2023/05/08,20:40,0.533,0.782,0.475,0.972,0.663,0.315,0.559,0.532,�k�k��,4.6,��
2023/05/08,20:50,0.533,0.781,0.476,0.973,0.664,0.316,0.559,0.531,�k�k��,4.3,��
2023/05/08,21:00,0.534,0.781,0.476,0.972,0.665,0.314,0.559,0.532,�k�k��,4.3,��
2023/05/08,21:10,0.536,0.781,0.477,0.973,0.664,0.314,0.557,0.532,�k�k��,4.8,��
2023/05/08,21:20,0.534,0.778,0.476,0.971,0.664,0.315,0.558,0.530,�k��,4.2,��
2023/05/08,21:30,0.534,0.783,0.475,0.973,0.666,0.315,0.559,0.532,�k�k��,4.2,��
2023/05/08,21:40,0.534,0.784,0.476,0.974,0.664,0.314,0.559,0.532,�k�k��,4.9,��
2023/05/08,21:50,0.532,0.780,0.476,0.970,0.666,0.315,0.558,0.530,�k�k��,4.5,��
2023/05/08,22:00,0.533,0.782,0.476,0.971,0.666,0.314,0.559,0.532,�k�k��,4.5,��
2023/05/08,22:10,0.534,0.780,0.475,0.972,0.664,0.315,0.559,0.530,�k�k��,5.0,��
2023/05/08,22:20,0.535,0.780,0.476,0.972,0.665,0.313,0.558,0.532,�k�k��,5.1,��
2023/05/08,22:30,0.532,0.781,0.477,0.972,0.664,0.315,0.559,0.532,�k�k��,5.4,��
2023/05/08,22:40,0.534,0.780,0.475,0.974,0.666,0.314,0.560,0.531,�k��,5.1,��
2023/05/08,22:50,0.534,0.781,0.476,0.974,0.664,0.314,0.558,0.532,�k�k��,4.0,��
2023/05/08,23:00,0.533,0.781,0.475,0.974,0.668,0.314,0.559,0.531,�k�k��,4.1,��
2023/05/08,23:10,0.534,0.782,0.475,0.973,0.667,0.315,0.558,0.532,�k�k��,4.8,��
2023/05/08,23:20,0.535,0.780,0.475,0.975,0.665,0.315,0.559,0.533,�k�k��,4.4,��
2023/05/08,23:30,0.535,0.782,0.475,0.974,0.665,0.314,0.559,0.533,�k�k��,4.3,��
2023/05/08,23:40,0.535,0.780,0.475,0.972,0.667,0.314,0.559,0.533,�k�k��,4.6,��
2023/05/08,23:50,0.533,0.781,0.475,0.972,0.666,0.314,0.559,0.530,�k��,3.7,��
